アッシュ彗星

P/2011 N1 ( ASH )

English version
Home page
Updated on January 22, 2012

---------------------------------------------------------------------

・ プロフィール

発見日 2011年7月1日
発見光度 19.9等
発見者 Ignacio de la Cueva (Ibiza, Spain), J. L. Ortiz, P. Santos-Sanz, N. Morales (San Pedro de Atacama, Chile)

・ 写真集

・ 軌道要素

Epoch 2012 June 2.0 TT = JDT 2456080.5
T 2012 May 31.08567 TT                                  MPC
q   2.8580071            (2000.0)            P               Q
n   0.06228744     Peri.  331.01816     +0.57123157     -0.59080431
a   6.3028320      Node    77.67631     +0.81942706     +0.37051797
e   0.5465519      Incl.   35.67698     +0.04726295     +0.71670545
P  15.8
From 212 observations 2011 July 1-2012 Jan. 18, mean residual 0".4.

・ 星図

・ 光度変化

        m1 = 10.0 + 5 logΔ + 10.0 log r

---------------------------------------------------------------------

軌道要素はM.P.E.C. 2012-B23に掲載されたものです。
星図はステラナビゲータ Ver.8 (アストロアーツ) で作成したものです。
光度グラフはComet for Windowsで作成したものです。

---------------------------------------------------------------------

Copyright(C) Seiichi Yoshida (comet@aerith.net). All rights reserved.